Zurück zum Katalog

STARLINK-32168

AktivKommunikationVLEO
NORAD 60335·PAYLOAD·🇺🇸 United States

Gestartet Aug 2, 2024 von Cape Canaveral Space Force Station

Loading…

Nächste Überflüge (nächste 24 Stunden)

TLE

AktuellSource: CelesTrak SupGP

Epoche: Sep 14, 2026, 22:30 UTC

1 60335C 24136G   26257.93798611  .00047972  00000+0  14175-2 0  2574
2 60335  53.1579 275.8918 0001249  91.4354 127.4617 15.34362785    14

Verfolge STARLINK-32168 in Echtzeit mit AllMySat

Download on the App Store